Weather Roundup
Issued by NWS Springfield, MO

Home | Current Version | Previous Version | Text Only | Print | Product List | Glossary On
Versions: 1 2 3 4 5 6 7 8 9 10 11 12 13 14 15 16 17 18 19 20 21 22 23 24 25 26 27 28 29 30 31 32 33 34 35 36 37 38 39 40 41 42 43 44 45 46 47 48 49 50
000
NZUS99 KSGF 242207
HRRSGF

HOURLY WEATHER
NATIONAL WEATHER SERVICE SPRINGFIELD MO
500 PM CDT SUN MAY 24 2015

......SGF CWA......

CITY           SKY/WX    TMP DP  RH WIND       PRES   REMARKS
SPRINGFIELD    RAIN      67  64  90 SW8       29.90S FOG
JOPLIN         LGT RAIN  67  65  93 CALM      29.88F
WEST PLAINS    CLOUDY    76  68  76 S9        29.92F
ROLLA          PTSUNNY   78  65  63 S18G28    29.88S
OSAGE BEACH    CLOUDY    73  64  73 SW7       29.89R
BRANSON        LGT RAIN  64  63  94 CALM      29.91F

......SURROUNDING SGF CWA......

CITY           SKY/WX    TMP DP  RH WIND       PRES   REMARKS
CHANUTE        LGT RAIN  66  64  93 SW6       29.88F
PARSONS        LGT RAIN  67  65  93 SW3       29.88F
COFFEYVILLE    LGT RAIN  67  64  90 NE3       29.85F
EMPORIA        CLOUDY    65  62  90 S8        29.87F
GROVE OK       LGT RAIN  68  68 100 NE3       29.86F
ROGERS AR      LGT RAIN  64  62  93 N5        29.87F
SILOAM SPRINGS CLOUDY    64  57  77 CALM      29.87F
HARRISON AR    HVY RAIN  64  63  96 VRB6      29.91S FOG
NEAR YELLVILLE   N/A     72  66  83 E3        29.86F

......KANSAS AND MISSOURI......

CITY           SKY/WX    TMP DP  RH WIND       PRES   REMARKS
KANSAS CTY INT LGT RAIN  69  65  86 S7        29.85F
DOWNTOWN KC    LGT RAIN  70  63  78 S8        29.84F
COLUMBIA       CLOUDY    71  67  87 S10       29.88F
SEDALIA        CLOUDY    70  64  81 W10       29.88S
ST JOSEPH      LGT RAIN  70  62  76 SW10      29.84S
ST LOUIS       PTSUNNY   85  64  49 S16G29    29.91F
SPIRIT OF STL  PTSUNNY   84  65  52 S14G28    29.88F
KIRKSVILLE     CLOUDY    71  68  90 S6        29.85S
WICHITA        CLOUDY    67  61  81 S9        29.84F
TOPEKA         CLOUDY    69  63  81 S10       29.85F
OLATHE         LGT RAIN  67  64  90 SW8       29.86S

......TENNESSEE......

CITY           SKY/WX    TMP DP  RH WIND       PRES   REMARKS
MEMPHIS        PTSUNNY   86  69  56 SE17G24   29.97F HX  90
NASHVILLE      MOSUNNY   83  64  52 S13G20    30.11F

......ARKANSAS.......

CITY           SKY/WX    TMP DP  RH WIND       PRES   REMARKS
FAYETTEVILLE   HVY RAIN  62  62 100 E5        29.86F VSB 1
FT SMITH       LGT RAIN  65  63  93 W3        29.86R FOG
LITTLE ROCK    LGT RAIN  72  65  78 S16G25    29.92R

......OKLAHOMA.......

CITY           SKY/WX    TMP DP  RH WIND       PRES   REMARKS
TULSA          CLOUDY    68  64  87 SE5       29.84F
PONCA CITY     LGT RAIN  65  64  97 SE15      29.82F
MCALESTER      LGT RAIN  66  63  90 E7        29.86S
OKLAHOMA CITY  CLOUDY    69  64  84 SE7       29.81F

......IOWA............

CITY           SKY/WX    TMP DP  RH WIND       PRES   REMARKS
DES MOINES     CLOUDY    72  64  76 S8        29.80F
QUAD CITIES    LGT RAIN  75  67  76 S9G22     29.86F

......ILLINOIS........

CITY           SKY/WX    TMP DP  RH WIND       PRES   REMARKS
QUINCY         MOSUNNY   78  64  61 S17G31    29.86S
CHICAGO        LGT RAIN  64  59  83 E6        30.01F




USA.gov is the U.S. government's official web portal to all federal, state and local government web resources and services.